Date,TemperatureHighF,TemperatureAvgF,TemperatureLowF,DewpointHighF,DewpointAvgF,DewpointLowF,HumidityHigh,HumidityAvg,HumidityLow,PressureMaxIn,PressureMinIn,WindSpeedMaxMPH,WindSpeedAvgMPH,GustSpeedMaxMPH,PrecipitationSumIn
2013-5-1,67,54,37,44,36,25,83,55,23,30.44,30.30,10,1,10,0.00
2013-5-2,75,58,41,47,40,34,92,56,24,30.44,30.26,6,1,8,0.00
2013-5-3,68,56,47,44,38,30,81,54,32,30.42,30.30,7,1,7,0.00
2013-5-4,69,55,43,51,42,39,92,66,35,30.34,30.18,8,1,8,0.00
2013-5-5,63,51,41,44,40,35,90,67,41,30.27,30.17,8,1,8,0.00
2013-5-6,70,55,41,52,46,38,91,74,47,30.23,30.10,6,1,8,0.00
2013-5-7,73,61,47,57,51,45,92,73,51,30.13,30.04,8,1,8,0.00
2013-5-8,69,64,58,68,61,55,95,91,81,30.07,29.94,113,8,113,0.00
2013-5-9,67,62,56,65,60,54,95,91,77,29.98,29.84,3,0,3,0.22
2013-5-10,79,66,54,65,55,49,95,71,38,29.95,29.85,6,1,7,0.00
2013-5-11,70,66,60,68,63,55,95,91,80,29.85,29.65,4,0,6,0.02
2013-5-12,67,62,49,65,46,25,95,63,26,29.87,29.60,10,1,12,0.00
2013-5-13,53,47,39,34,29,22,82,51,31,30.06,29.87,11,1,12,0.00
2013-5-14,59,47,35,37,29,20,90,55,23,30.08,29.98,8,1,10,0.00
2013-5-15,64,53,38,53,45,33,88,75,54,30.03,29.63,8,1,10,0.00
2013-5-16,82,65,51,61,48,36,94,61,22,29.79,29.66,8,0,10,0.00
2013-5-17,71,60,51,50,41,35,82,50,31,30.17,29.79,8,1,8,0.00
2013-5-18,68,57,46,56,49,42,92,77,44,30.27,30.17,5,0,6,0.00
2013-5-19,64,61,57,62,59,54,94,93,91,30.30,30.14,5,0,6,0.00
2013-5-20,80,70,63,72,65,61,96,84,60,30.14,29.91,5,0,6,0.00
2013-5-21,89,75,64,71,66,61,94,76,48,29.93,29.78,9,0,9,0.00
2013-5-22,80,70,60,68,64,57,91,83,67,29.89,29.79,5,0,6,0.00
2013-5-23,77,73,68,75,70,65,96,91,78,29.84,29.71,113,32,113,0.00
2013-5-24,78,65,52,76,64,49,97,95,91,29.88,29.62,113,23,113,0.00
2013-5-25,55,52,48,54,48,42,95,89,72,29.94,29.83,11,1,12,0.00
2013-5-26,63,54,46,42,39,34,81,59,36,30.16,29.87,13,2,16,0.00
2013-5-27,74,58,41,48,39,30,92,57,25,30.20,30.07,7,1,8,0.00
2013-5-28,66,58,49,60,52,41,95,82,42,30.18,30.10,3,0,3,0.00
2013-5-29,81,70,61,71,65,60,96,85,61,30.10,29.95,5,0,5,0.00
2013-5-30,92,78,66,70,65,59,93,68,34,30.08,29.99,6,0,6,0.00
2013-5-31,92,77,66,70,65,53,92,68,30,30.07,29.93,6,0,6,0.00